DELTA 1 DEB, 10716

Orbit data source: Space-Track

DELTA 1 DEB, 10716 is space debris in SSO originally from a launch on Thu, 29 Jul 1976 UTC launched from the Air Force Western Test Range (AFWTR). Debris objects in space refer to the collection of defunct objects orbiting the Earth. Examples of debris include non-operational satellites, rocket bodies, and fragments generated from explosions, collisions, or faulty payload assembly.

Loading next visibility...
DELTA 1 DEB details
Identifier
10716, 1976-077AM
Orbit
SSO
Last TLE update17 hours ago
Origin
Flag of USGSFC (US)
ManufacturerUnknown
MissionSpacecraft
Bus & MotorUnknown
MassUnknown
Launch date (UTC)
1976-07-29 (48 years ago)
Launch vehicleUnknown
Launch site
Air Force Western Test Range (AFWTR)
Object type
Payload
Rocket body
Debris
Shape & HBRUnknown
Radar Cross SectionSmall (<0.1 m²)

Expand to show TLE details & history

TLE from 17 hours ago
0 DELTA 1 DEB
1 10716U 76077AM  25018.29985015  .00000005  00000-0  26256-3 0  9996
2 10716 102.8084 149.8530 0080713  16.2179  13.4321 12.79249319210863
Epoch: 2025-01-18T07:11Z
Definitive object data (Epoch: 2025-01-18T07:11:47.052Z)
Latitude29.09933°
Longitude-83.27701°
Altitude1,287.19 km
Speed7.243 km/s
True Right ascension09h 30m 28s
True Declination28° 57' 49"
Sunlit
Object was in full shadow at TLE epoch
Visualization TLE readout
Latitude-12.74103°
Longitude-72.32751°
Altitude1,294.328 km
Speed7.234 km/s
Apparent Right ascension11h 13m 47s
Apparent Declination-26° 06' 38"
Sunlit
Object is in full shadow
Visualization observer readout
Local Sidereal Time00:46:11
Azimuth61.356° ENE
Elevation-66.332°
Doppler factor1
Orbital elements
Apogee altitude1,404.376 km
Perigee altitude1,279.752 km
Semi-major axis7,720.201 km
Eccentricity0.0080713
Inclination102.8084°
RAAN149.853°
Arg. of periapsis16.2179°
True anomaly13.64908°
Mean anomaly13.4321°
Eccentric anomaly13.54037°
Mean motion3.19963 °/min
BSTAR0.00026256
Orbital period112.51 mins
Loading maneuver chart data...
Loading historical data...
Loading historical data...
Loading historical data...
Loading historical data...
Loading historical data...
Loading historical data...
Loading historical data...

DELTA 1 DEB Visibility forecast

Observer location: undefined°, undefined

Span
Click to sort rows by Start time (UTC) header in descending order
Start Az.
Max El. time (UTC)
Max El. Az.
Max El.
End time (UTC)
End Az.
13 mins2025-01-19 07:34:07.667Z131.346° SE2025-01-19 07:40:07.667Z66.276° ENE36.859°2025-01-19 07:47:07.667Z352.516° N
11 mins2025-01-19 09:26:07.667Z207.391° SW2025-01-19 09:31:07.667Z264.85° W29.164°2025-01-19 09:37:07.667Z321.504° NNW
14 mins2025-01-19 21:12:07.667Z29.904° NE2025-01-19 21:18:07.667Z91.482° ESE39.802°2025-01-19 21:26:07.667Z181.868° SSW
12 mins2025-01-19 23:03:07.667Z355.882° N2025-01-19 23:08:07.667Z308.604° NW28.479°2025-01-19 23:15:07.667Z244.183° WSW
|